Tracking 18942 objects as of 17-Jan-2018
HD Live streaming from Space Station
objects crossing your sky now

SL-3 R/B

Track SL-3 R/B now!
10-day predictions
SL-3 R/B is classified as:


NORAD ID: 13154
Int'l Code: 1982-039B
Perigee: 551.4 km
Apogee: 606.2 km
Inclination: 81.2 °
Period: 96.1 minutes
Semi major axis: 6949 km
RCS: 5.8414 m2 (large)
Launch date: May 5, 1982
Source: Commonwealth of Independent States (former USSR) (CIS)
Launch site: PLESETSK MISSILE AND SPACE COMPLEX (PKMTR)

Note: This is a ROCKET BODY
aabbcc
Your satellite tracking list
Your tracking list is empty




NASA's NSSDC Master Catalog

Two Line Element Set (TLE):
1 13154U 82039B   18016.84398473  .00000196  00000-0  14382-4 0  9996
2 13154  81.1841 349.2201 0039413 317.4468  42.3698 14.98446095935732
Source of the keplerian elements: AFSPC